FW4541 Weather Reports


time (UTC)temp
C
wind
direction
speed
KPH
gust
KPH
rain 1hr
cm
rain 24hr
cm
rain mn
cm
humidity
%
barometer
mb
20260508194602 21 354 3.2 3.2 0.00 0.00 0.00 48 1014.2
20260508194059 22 55 1.6 3.2 0.00 0.00 0.00 46 1014.3
20260508193555 22 125 0.0 8.0 0.00 0.00 0.00 50 1014.1
20260508193052 23 313 3.2 8.0 0.00 0.00 0.00 45 1014.3
20260508192549 22 137 1.6 1.6 0.00 0.00 0.00 47 1014.4
20260508192046 23 154 1.6 1.6 0.00 0.00 0.00 45 1014.6
20260508191543 23 142 0.0 3.2 0.00 0.00 0.00 44 1014.7
20260508191040 22 135 0.0 1.6 0.00 0.00 0.00 48 1014.8
20260508190537 22 139 1.6 1.6 0.00 0.00 0.00 46 1014.9
20260508190033 22 147 1.6 3.2 0.00 0.00 0.00 47 1014.7
20260508185531 21 118 1.6 3.2 0.00 0.00 0.00 45 1015.0
20260508185028 22 62 1.6 4.8 0.00 0.00 0.00 44 1015.3
20260508184525 22 105 3.2 3.2 0.00 0.00 0.00 42 1015.2
20260508184022 22 125 0.0 1.6 0.00 0.00 0.00 44 1015.1
20260508183519 23 233 3.2 8.0 0.00 0.00 0.00 44 1015.1
20260508183014 22 123 1.6 1.6 0.00 0.00 0.00 48 1015.3
20260508182511 22 129 0.0 4.8 0.00 0.00 0.00 47 1015.6
20260508182007 21 132 0.0 3.2 0.00 0.00 0.00 50 1015.4
20260508181503 21 121 0.0 1.6 0.00 0.00 0.00 44 1015.4
20260508181001 21 321 4.8 8.0 0.00 0.00 0.00 47 1015.8
20260508180457 20 121 1.6 9.7 0.00 0.00 0.00 52 1015.4
20260508175953 21 320 8.0 9.7 0.00 0.00 0.00 49 1015.7
20260508175450 20 121 0.0 0.0 0.00 0.00 0.00 53 1015.5
20260508174948 20 112 1.6 1.6 0.00 0.00 0.00 52 1016.0
20260508174445 21 133 1.6 1.6 0.00 0.00 0.00 50 1015.7
20260508173942 21 125 0.0 1.6 0.00 0.00 0.00 50 1015.9
20260508173439 21 130 0.0 0.0 0.00 0.00 0.00 50 1015.8
20260508172935 20 131 0.0 0.0 0.00 0.00 0.00 55 1016.2
20260508172432 20 123 0.0 0.0 0.00 0.00 0.00 56 1016.1
20260508171929 20 111 0.0 0.0 0.00 0.00 0.00 54 1016.3
20260508171425 20 118 0.0 4.8 0.00 0.00 0.00 50 1016.2
20260508170922 21 56 0.0 3.2 0.00 0.00 0.00 46 1016.2
20260508170419 21 124 0.0 3.2 0.00 0.00 0.00 52 1016.3
20260508165915 20 102 0.0 1.6 0.00 0.00 0.00 50 1016.2
20260508165414 19 123 1.6 1.6 0.00 0.00 0.00 51 1016.5
20260508164909 20 103 1.6 3.2 0.00 0.00 0.00 48 1016.6
20260508164407 20 161 1.6 3.2 0.00 0.00 0.00 48 1017.0
20260508163904 20 124 0.0 3.2 0.00 0.00 0.00 52 1016.7
20260508163402 21 116 0.0 3.2 0.00 0.00 0.00 51 1016.8
20260508162856 21 131 1.6 3.2 0.00 0.00 0.00 50 1016.9
20260508162354 20 137 1.6 1.6 0.00 0.00 0.00 51 1017.0
20260508161851 20 132 1.6 1.6 0.00 0.00 0.00 57 1016.9
20260508161349 20 97 3.2 3.2 0.00 0.00 0.00 55 1017.1
20260508160846 20 106 0.0 1.6 0.00 0.00 0.00 51 1016.9
20260508160344 20 132 1.6 1.6 0.00 0.00 0.00 53 1017.2
20260508155840 20 136 0.0 1.6 0.00 0.00 0.00 50 1017.3
20260508155338 20 186 4.8 4.8 0.00 0.00 0.00 50 1017.3
20260508154834 20 127 1.6 1.6 0.00 0.00 0.00 56 1017.4
20260508154332 19 81 3.2 4.8 0.00 0.00 0.00 54 1017.5
20260508153828 20 127 0.0 0.0 0.00 0.00 0.00 53 1017.5
20260508153326 19 115 0.0 0.0 0.00 0.00 0.00 54 1017.6
20260508152821 18 119 0.0 0.0 0.00 0.00 0.00 58 1017.4
20260508152318 18 107 1.6 3.2 0.00 0.00 0.00 54 1017.5
20260508151814 18 59 3.2 3.2 0.00 0.00 0.00 54 1017.5
20260508151312 18 120 0.0 3.2 0.00 0.00 0.00 57 1017.6
20260508150808 18 158 1.6 3.2 0.00 0.00 0.00 52 1017.3
20260508150305 18 119 0.0 3.2 0.00 0.00 0.00 57 1017.5
20260508145802 18 100 0.0 1.6 0.00 0.00 0.00 58 1017.3
20260508145257 18 112 0.0 1.6 0.00 0.00 0.00 61 1017.2
20260508144754 18 97 1.6 1.6 0.00 0.00 0.00 57 1017.6
20260508144252 18 100 1.6 1.6 0.00 0.00 0.00 55 1017.4
20260508143749 18 129 0.0 3.2 0.00 0.00 0.00 57 1017.7
20260508143246 18 134 0.0 1.6 0.00 0.00 0.00 59 1017.5
20260508142742 17 102 0.0 1.6 0.00 0.00 0.00 58 1017.4
20260508142239 17 94 1.6 3.2 0.00 0.00 0.00 58 1017.7
20260508141736 17 103 0.0 3.2 0.00 0.00 0.00 60 1017.5
20260508141233 16 96 1.6 3.2 0.00 0.00 0.00 61 1017.5
20260508140731 16 102 0.0 1.6 0.00 0.00 0.00 63 1017.9
20260508140227 16 147 3.2 3.2 0.00 0.00 0.00 66 1017.8
20260508135723 16 116 1.6 3.2 0.00 0.00 0.00 67 1017.7
20260508135220 16 112 0.0 0.0 0.00 0.00 0.00 69 1017.8
20260508134715 16 124 0.0 3.2 0.00 0.00 0.00 71 1017.9
20260508134213 15 91 1.6 3.2 0.00 0.00 0.00 68 1017.7
20260508133709 15 124 0.0 1.6 0.00 0.00 0.00 70 1017.7
20260508133207 15 136 0.0 1.6 0.00 0.00 0.00 73 1017.4
20260508132705 15 112 0.0 0.0 0.00 0.00 0.00 77 1017.3
20260508132202 15 116 0.0 0.0 0.00 0.00 0.00 80 1017.4
20260508131657 15 113 0.0 0.0 0.00 0.00 0.00 81 1017.4
20260508131154 14 111 0.0 0.0 0.00 0.00 0.00 82 1017.4
20260508130650 13 92 1.6 1.6 0.00 0.00 0.00 84 1017.5
20260508130148 12 117 0.0 0.0 0.00 0.00 0.00 92 1017.3
20260508125643 12 95 1.6 1.6 0.00 0.00 0.00 97 1017.4
20260508125140 12 110 0.0 0.0 0.00 0.00 0.00 99 1017.1
20260508124638 12 106 0.0 0.0 0.00 0.00 0.00 99 1017.2
20260508124135 12 120 0.0 0.0 0.00 0.00 0.00 99 1017.3
20260508123633 12 117 0.0 0.0 0.00 0.00 0.00 99 1017.1
20260508123131 11 115 0.0 0.0 0.00 0.00 0.00 99 1017.1
20260508122626 11 116 0.0 0.0 0.00 0.00 0.00 99 1016.9
20260508122124 12 122 0.0 0.0 0.00 0.00 0.00 99 1016.9
20260508121622 11 118 0.0 0.0 0.00 0.00 0.00 99 1016.6
20260508121120 11 113 0.0 0.0 0.00 0.00 0.00 99 1016.8
20260508120617 11 113 0.0 0.0 0.00 0.00 0.00 99 1016.6
20260508120115 11 113 0.0 0.0 0.00 0.00 0.00 99 1016.5
20260508115612 11 113 0.0 0.0 0.00 0.00 0.00 99 1016.6
20260508115109 10 113 0.0 0.0 0.00 0.00 0.00 99 1016.5
20260508114606 10 113 0.0 0.0 0.00 0.00 0.00 99 1016.4
20260508114102 10 113 0.0 0.0 0.00 0.00 0.00 99 1016.3
20260508113600 10 113 0.0 0.0 0.00 0.00 0.00 99 1016.4
20260508113058 10 113 0.0 0.0 0.00 0.00 0.00 99 1016.3
20260508112553 10 113 0.0 0.0 0.00 0.00 0.00 99 1016.4
20260508112051 10 113 0.0 0.0 0.00 0.00 0.00 99 1016.1
20260508111548 9 113 0.0 0.0 0.00 0.00 0.00 99 1016.1
20260508111045 9 113 0.0 0.0 0.00 0.00 0.00 99 1015.8
20260508110543 9 113 0.0 0.0 0.00 0.00 0.00 99 1015.9
20260508110038 9 113 0.0 0.0 0.00 0.00 0.00 99 1015.8
20260508105533 9 113 0.0 0.0 0.00 0.00 0.00 99 1015.7
20260508105031 8 113 0.0 0.0 0.00 0.00 0.00 99 1015.8
20260508104529 8 113 0.0 0.0 0.00 0.00 0.00 99 1015.5
20260508104025 8 113 0.0 0.0 0.00 0.00 0.00 99 1015.4
20260508103522 8 113 0.0 0.0 0.00 0.00 0.00 99 1015.4
20260508103019 8 113 0.0 0.0 0.00 0.00 0.00 99 1015.1
20260508102517 8 113 0.0 0.0 0.00 0.00 0.00 99 1015.0
20260508102014 8 113 0.0 0.0 0.00 0.00 0.00 99 1014.9
20260508101512 8 113 0.0 0.0 0.00 0.00 0.00 99 1014.9
20260508101008 8 113 0.0 0.0 0.00 0.00 0.00 99 1015.0
20260508100507 8 113 0.0 0.0 0.00 0.00 0.00 99 1014.8
20260508100004 9 113 0.0 0.0 0.00 0.00 0.00 99 1014.7
20260508095501 9 113 0.0 0.0 0.00 0.00 0.00 99 1014.8
20260508094957 9 113 0.0 0.0 0.00 0.00 0.00 99 1014.7
20260508094454 9 113 0.0 0.0 0.00 0.00 0.00 99 1014.9
20260508093951 9 113 0.0 0.0 0.00 0.00 0.00 99 1014.8
20260508093448 9 113 0.0 0.0 0.00 0.00 0.00 99 1014.8
20260508092946 9 113 0.0 0.0 0.00 0.00 0.00 99 1014.6
20260508092443 9 113 0.0 0.0 0.00 0.00 0.00 99 1014.6
20260508091942 9 113 0.0 0.0 0.00 0.00 0.00 99 1014.6
20260508091438 9 113 0.0 0.0 0.00 0.00 0.00 99 1014.4
20260508090935 9 113 0.0 0.0 0.00 0.00 0.00 99 1014.4
20260508090434 9 113 0.0 0.0 0.00 0.00 0.00 99 1014.7
20260508085929 9 113 0.0 0.0 0.00 0.00 0.00 99 1014.4
20260508085426 9 113 0.0 0.0 0.00 0.00 0.00 99 1014.3
20260508084923 10 113 0.0 0.0 0.00 0.00 0.00 99 1014.6
20260508084420 10 113 0.0 0.0 0.00 0.00 0.00 99 1014.6
20260508083918 10 113 0.0 0.0 0.00 0.00 0.00 99 1014.3
20260508083415 10 113 0.0 0.0 0.00 0.00 0.00 99 1014.5
20260508082914 10 114 0.0 0.0 0.00 0.00 0.00 99 1014.4
20260508082412 10 114 0.0 0.0 0.00 0.00 0.00 99 1014.4
20260508081910 10 114 0.0 0.0 0.00 0.00 0.00 99 1014.3
20260508081407 10 113 0.0 0.0 0.00 0.00 0.00 99 1014.4
20260508080903 10 113 0.0 0.0 0.00 0.00 0.00 99 1014.2
20260508080401 10 113 0.0 0.0 0.00 0.00 0.00 99 1014.0
20260508075857 10 113 0.0 0.0 0.00 0.00 0.00 99 1014.2
20260508075355 10 113 0.0 0.0 0.00 0.00 0.00 99 1014.2
20260508074852 10 114 0.0 0.0 0.00 0.00 0.00 99 1013.9
20260508074349 10 114 0.0 0.0 0.00 0.00 0.00 99 1014.0
20260508073846 10 114 0.0 0.0 0.00 0.00 0.00 99 1013.9
20260508073344 10 114 0.0 0.0 0.00 0.00 0.00 99 1014.0
20260508072840 10 114 0.0 0.0 0.00 0.00 0.00 99 1014.1
20260508072337 10 114 0.0 0.0 0.00 0.00 0.00 99 1013.9
20260508071834 11 114 0.0 0.0 0.00 0.00 0.00 99 1013.9
20260508071332 11 114 0.0 0.0 0.00 0.00 0.00 99 1014.0
20260508070829 11 114 0.0 0.0 0.00 0.00 0.00 99 1013.9
20260508070328 11 114 0.0 0.0 0.00 0.00 0.00 99 1013.9
20260508065825 11 114 0.0 0.0 0.00 0.00 0.00 99 1013.7
20260508065323 11 114 0.0 0.0 0.00 0.00 0.00 99 1013.9
20260508064821 11 114 0.0 0.0 0.00 0.00 0.00 99 1013.9
20260508064318 11 114 0.0 0.0 0.00 0.00 0.00 99 1013.7
20260508063815 11 114 0.0 0.0 0.00 0.00 0.00 99 1013.5
20260508063313 11 114 0.0 0.0 0.00 0.00 0.00 99 1013.6
20260508062810 11 113 0.0 0.0 0.00 0.00 0.00 99 1013.6
20260508062308 11 113 0.0 0.0 0.00 0.00 0.00 99 1013.7
20260508061804 11 109 0.0 0.0 0.00 0.00 0.00 99 1013.7
20260508061302 11 117 0.0 0.0 0.00 0.00 0.00 99 1013.8
20260508060758 11 117 0.0 0.0 0.00 0.00 0.00 99 1014.0
20260508060256 11 117 0.0 0.0 0.00 0.00 0.00 99 1014.1
20260508055751 11 118 0.0 0.0 0.00 0.00 0.00 99 1014.0
20260508055249 12 117 0.0 0.0 0.00 0.00 0.00 99 1014.0
20260508054745 12 117 0.0 0.0 0.00 0.00 0.00 99 1013.8
20260508054243 12 109 0.0 0.0 0.00 0.00 0.00 99 1014.0
20260508053740 12 115 0.0 0.0 0.00 0.00 0.00 99 1013.7
20260508053237 12 114 0.0 0.0 0.00 0.00 0.00 99 1014.2
20260508052734 12 115 0.0 0.0 0.00 0.00 0.00 99 1013.8
20260508052231 12 115 0.0 0.0 0.00 0.00 0.00 99 1013.7
20260508051727 12 115 0.0 0.0 0.00 0.00 0.00 99 1013.8
20260508051223 12 115 0.0 0.0 0.00 0.00 0.00 99 1013.5
20260508050720 12 115 0.0 0.0 0.00 0.00 0.00 99 1013.7
20260508050217 12 115 0.0 0.0 0.00 0.00 0.00 99 1013.7
20260508045712 12 115 0.0 0.0 0.00 0.00 0.00 99 1013.6
20260508045210 13 115 0.0 0.0 0.00 0.00 0.00 99 1013.7
20260508044707 13 115 0.0 0.0 0.00 0.00 0.00 99 1013.5
20260508044204 13 115 0.0 0.0 0.00 0.00 0.00 99 1013.4
20260508043659 13 118 0.0 0.0 0.00 0.00 0.00 99 1013.2
20260508043158 13 118 0.0 0.0 0.00 0.00 0.00 99 1013.3
20260508042654 13 118 0.0 0.0 0.00 0.00 0.00 99 1013.4
20260508042152 13 119 0.0 0.0 0.00 0.00 0.00 99 1013.4
20260508041648 13 119 0.0 0.0 0.00 0.00 0.00 99 1013.2
20260508041145 13 119 0.0 0.0 0.00 0.00 0.00 99 1013.3
20260508040641 13 119 0.0 0.0 0.00 0.00 0.00 99 1013.6
20260508040139 13 119 0.0 0.0 0.00 0.00 0.00 98 1013.2
20260508035636 13 119 0.0 0.0 0.00 4.19 4.19 98 1013.3
20260508035133 13 119 0.0 0.0 0.00 4.19 4.19 98 1013.2
20260508034630 14 113 0.0 0.0 0.00 4.19 4.19 98 1013.3
20260508034127 13 112 0.0 0.0 0.00 4.19 4.19 98 1013.6
20260508033624 14 112 0.0 0.0 0.00 4.19 4.19 98 1013.2
20260508033123 14 112 0.0 0.0 0.00 4.19 4.19 97 1013.0
20260508032618 14 112 0.0 0.0 0.00 4.19 4.19 97 1013.0
20260508032116 14 112 0.0 0.0 0.00 4.19 4.19 97 1013.0
20260508031613 14 112 0.0 0.0 0.00 4.19 4.19 96 1012.9
20260508031109 15 112 0.0 0.0 0.00 4.19 4.19 96 1013.0
20260508030606 15 112 0.0 0.0 0.00 4.19 4.19 96 1013.3
20260508030104 15 112 0.0 0.0 0.00 4.19 4.19 96 1013.0
20260508025559 15 111 0.0 0.0 0.00 4.19 4.19 95 1012.9
20260508025057 15 111 0.0 0.0 0.00 4.19 4.19 95 1012.9
20260508024553 15 115 0.0 0.0 0.00 4.19 4.19 95 1012.8
20260508024050 15 115 0.0 0.0 0.00 4.19 4.19 95 1012.7
20260508023546 15 112 0.0 0.0 0.00 4.19 4.19 95 1012.7
20260508023044 15 118 0.0 0.0 0.00 4.19 4.19 95 1012.8
20260508022540 15 119 0.0 0.0 0.00 4.19 4.19 95 1012.6
20260508022037 15 111 0.0 0.0 0.00 4.19 4.19 95 1012.5
20260508021532 15 114 0.0 0.0 0.00 4.19 4.19 94 1012.6
20260508021028 15 114 0.0 0.0 0.00 4.19 4.19 94 1012.5
20260508020526 15 114 0.0 0.0 0.00 4.19 4.19 94 1012.3
20260508020024 15 115 0.0 0.0 0.00 4.19 4.19 94 1012.5
20260508015521 15 107 0.0 0.0 0.00 4.19 4.19 94 1012.2
20260508015018 15 122 0.0 0.0 0.00 4.19 4.19 94 1012.1
20260508014514 15 114 0.0 3.2 0.00 4.19 4.19 94 1012.1
20260508014010 15 121 0.0 0.0 0.00 4.19 4.19 94 1011.9
20260508013501 15 106 0.0 1.6 0.00 4.19 4.19 93 1011.8
20260508012958 15 106 0.0 0.0 0.00 4.19 4.19 93 1011.7
20260508012455 15 118 0.0 3.2 0.00 4.19 4.19 93 1011.7
20260508011952 15 115 1.6 1.6 0.00 4.19 4.19 94 1011.4
20260508011450 15 102 0.0 3.2 0.00 4.19 4.19 94 1011.3
20260508010948 15 103 0.0 3.2 0.00 4.19 4.19 94 1011.4
20260508010445 15 103 0.0 1.6 0.00 4.19 4.19 93 1011.1
20260508005942 15 112 0.0 0.0 0.00 4.19 4.19 93 1010.8
20260508005439 15 107 0.0 0.0 0.00 4.19 4.19 93 1010.9
20260508004935 16 122 0.0 1.6 0.00 4.19 4.19 92 1010.9
20260508004431 16 120 0.0 0.0 0.00 4.19 4.19 92 1010.8
20260508003928 16 128 0.0 0.0 0.00 4.19 4.19 92 1010.5
20260508003425 16 119 0.0 0.0 0.00 4.19 4.19 93 1010.4
20260508002922 16 86 0.0 1.6 0.00 4.19 4.19 92 1010.3
20260508002418 16 119 1.6 3.2 0.00 4.19 4.19 92 1010.3
20260508001915 16 112 0.0 1.6 0.00 4.19 4.19 91 1010.1
20260508001411 17 114 1.6 3.2 0.00 4.19 4.19 92 1009.9
20260508000908 17 115 0.0 3.2 0.00 4.19 4.19 92 1010.0
20260508000405 17 104 0.0 3.2 0.00 4.19 4.19 92 1009.8
20260507235900 17 114 0.0 1.6 0.00 4.19 4.19 91 1009.4
20260507235358 17 108 0.0 1.6 0.00 4.19 4.19 91 1009.6
20260507234855 18 108 0.0 1.6 0.00 4.19 4.19 90 1009.2
20260507234351 18 109 0.0 3.2 0.00 4.19 4.19 89 1009.1
20260507233848 18 91 3.2 9.7 0.00 4.19 4.19 87 1008.9
20260507233345 20 11 3.2 4.8 0.00 4.19 4.19 85 1008.8
20260507232844 21 87 1.6 3.2 0.00 4.19 4.19 80 1008.1
20260507232340 23 134 3.2 3.2 0.00 4.19 4.19 74 1008.4
20260507231837 23 282 1.6 4.8 0.00 4.19 4.19 73 1007.3
20260507231333 23 119 0.0 8.0 0.00 4.19 4.19 75 1007.1
20260507230830 23 118 1.6 1.6 0.00 4.19 4.19 74 1007.2
20260507230327 23 121 1.6 8.0 0.00 4.19 4.19 74 1007.3
20260507225827 23 117 0.0 4.8 0.00 4.19 4.19 72 1007.1
20260507225323 23 113 0.0 3.2 0.00 4.19 4.19 72 1006.7
20260507224819 23 112 3.2 8.0 0.00 4.19 4.19 75 1007.0
20260507224317 23 303 9.7 12.9 0.00 4.19 4.19 75 1006.8
20260507223812 23 121 0.0 0.0 0.00 4.19 4.19 76 1006.8
20260507223309 23 126 0.0 3.2 0.00 4.19 4.19 75 1006.9
20260507222806 23 105 1.6 1.6 0.00 4.19 4.19 75 1006.4
20260507222305 23 93 1.6 3.2 0.00 4.19 4.19 75 1006.4
20260507221800 23 98 1.6 4.8 0.00 4.19 4.19 75 1006.5
20260507221255 23 84 4.8 8.0 0.00 4.19 4.19 76 1006.5
20260507220752 23 113 0.0 0.0 0.00 4.19 4.19 77 1006.5
20260507220251 23 126 0.0 3.2 0.00 4.19 4.19 76 1006.3
20260507215746 23 118 1.6 3.2 0.00 4.19 4.19 77 1006.3
20260507215244 23 131 1.6 3.2 0.00 4.19 4.19 77 1006.6
20260507214741 23 33 4.8 4.8 0.00 4.19 4.19 77 1006.5
20260507214238 23 113 1.6 3.2 0.00 4.19 4.19 76 1006.2
20260507213733 23 119 0.0 1.6 0.00 4.19 4.19 77 1006.1
20260507213231 23 101 3.2 3.2 0.00 4.19 4.19 76 1006.4
20260507212726 24 126 0.0 1.6 0.00 4.19 4.19 75 1006.4
20260507212223 24 120 0.0 1.6 0.00 4.19 4.19 75 1006.3
20260507211720 25 137 1.6 3.2 0.00 4.19 4.19 74 1006.4
20260507211216 25 132 1.6 3.2 0.00 4.19 4.19 73 1006.4
20260507210713 24 115 1.6 4.8 0.00 4.19 4.19 74 1006.3
20260507210210 24 121 1.6 1.6 0.00 4.19 4.19 76 1006.4
20260507205706 24 121 0.0 1.6 0.00 4.19 4.19 76 1006.5
20260507205203 24 123 0.0 1.6 0.00 4.19 4.19 75 1006.5
20260507204659 25 122 1.6 14.5 0.00 4.19 4.19 75 1006.7
20260507204157 25 130 0.0 1.6 0.00 4.19 4.19 74 1006.7
20260507203655 25 113 4.8 9.7 0.00 4.19 4.19 71 1006.3
20260507203152 26 128 1.6 4.8 0.00 4.19 4.19 71 1006.1
20260507202648 25 133 0.0 1.6 0.00 4.19 4.19 70 1006.3
20260507202144 26 97 4.8 4.8 0.00 4.19 4.19 69 1006.5
20260507201639 25 113 0.0 0.0 0.00 4.19 4.19 72 1006.8
20260507201137 25 107 3.2 4.8 0.00 4.19 4.19 69 1006.9
20260507200632 25 114 6.4 9.7 0.00 4.19 4.19 70 1006.7
20260507200129 26 137 1.6 4.8 0.00 4.19 4.19 70 1006.9
20260507195626 25 128 0.0 3.2 0.00 4.19 4.19 73 1006.6
20260507195123 23 131 0.0 1.6 0.00 4.19 4.19 75 1007.0